Temperature
17 17 18 17 18 18 18 18 18 18 18 18 18 18 18 18 18 18 18 18 18 18 18 18 18 18 18 18 18 18 18 18 18 18 18 18 18 18 18 18 18 18 18
17 17 17 17 17 17 17 18 18 18 18 18 18 18 18 18 18 18 18 18 18 18 18 18 18 18 18 18 18 18 18 18 18 18 18 18 18 18 18 18 18 17 18
17 17 17 17 17 17 17 18 18 18 18 18 17 17 17 17 18 18 18 18 17 17 17 17 17 18 18 18 18 18 18 18 18 18 18 17 17 18 18 18 18 18 18
17 17 17 17 17 17 17 17 17 17 17 17 17 17 17 17 17 17 17 17 17 17 17 17 17 17 17 18 18 18 18 18 18 18 17 17 17 17 18 18 18 18 18
17 17 17 17 17 17 17 17 17 17 17 17 17 17 17 17 17 17 17 17 17 17 17 17 17 17 17 17 17 17 17 18 18 17 17 17 17 17 17 17 17 17 17
17 16 17 17 17 17 17 17 17 17 17 17 17 17 17 17 17 17 17 17 17 17 17 17 17 17 17 17 17 17 17 17 17 17 17 17 17 17 17 17 17 17 17
17 16 17 17 17 17 17 17 17 17 17 17 17 17 17 17 17 17 17 17 17 17 17 17 17 17 17 17 17 17 17 17 16 16 16 16 17 17 17 17 17 17 17
17 17 17 17 17 17 17 17 17 17 17 17 17 17 17 17 17 17 17 17 17 17 17 17 17 17 17 17 17 17 17 16 16 16 16 16 17 17 17 17 17 17 17
17 16 16 16 16 17 17 17 17 17 17 17 17 17 17 17 17 17 17 17 17 17 17 17 17 17 17 17 17 17 17 17 16 16 16 16 16 17 17 17 17 17 17
17 16 16 16 16 16 16 17 17 17 17 17 17 16 16 16 16 16 16 16 16 16 16 16 16 16 16 16 16 16 16 16 16 16 16 16 16 16 16 16 16 16 16
16 16 16 16 16 16 16 16 16 16 16 16 16 16 16 16 16 16 16 16 16 16 16 16 16 16 16 16 16 16 16 16 16 16 16 16 16 16 16 16 16 16 16
17 17 16 16 16 16 16 16 16 16 16 16 16 16 16 16 16 16 16 16 16 16 16 16 16 16 16 16 16 16 16 16 16 15 15 16 16 16 16 16 16 16 16
17 17 16 16 16 16 16 16 16 16 16 16 16 16 16 16 16 16 16 16 16 15 15 15 15 16 16 16 16 16 16 16 16 15 15 16 16 16 16 16 16 16 16
17 16 16 16 16 16 16 16 16 16 16 16 16 16 15 15 15 15 15 15 15 15 15 15 15 15 15 16 16 15 15 15 15 15 15 15 15 15 15 15 16 16 16
17 17 16 16 16 16 16 16 16 16 15 15 15 15 15 15 15 15 15 15 15 15 15 15 15 15 15 15 15 15 15 15 15 15 15 15 15 15 15 15 15 15 15
17 17 16 16 16 16 16 16 16 16 15 15 15 15 15 15 15 15 15 15 15 15 15 15 15 15 15 15 15 15 15 15 14 14 14 14 15 15 15 15 15 15 15
17 17 16 16 16 16 16 16 16 16 16 15 15 15 15 15 15 15 15 15 15 15 15 15 15 14 14 14 14 14 14 14 14 14 14 14 14 14 14 14 14 14 14
17 17 17 16 16 16 16 16 16 16 15 15 15 15 15 15 15 15 15 15 15 14 14 14 14 14 14 14 14 14 14 14 14 14 14 14 14 14 14 14 14 14 14
17 17 16 16 16 16 16 16 15 15 15 15 15 15 15 15 15 15 15 14 14 14 14 14 14 14 14 14 14 14 14 14 14 14 14 14 14 13 13 13 14 14 14
17 17 16 16 16 16 16 16 15 15 15 15 15 15 15 15 15 15 14 14 14 14 14 14 14 14 14 14 14 13 13 13 13 13 13 13 13 13 13 13 13 13 13
17 17 16 16 16 16 16 15 15 15 15 15 15 15 15 15 15 14 14 14 14 14 14 14 14 14 13 13 13 13 13 13 13 13 13 13 13 13 13 12 13 12 12
17 16 16 16 16 16 16 16 15 15 15 15 15 15 15 14 14 14 14 14 14 14 14 13 13 13 13 13 13 13 13 13 13 13 12 12 12 12 12 12 12 12 12
16 16 16 16 16 16 15 15 15 15 15 15 15 14 14 14 14 14 14 14 14 14 13 13 13 13 13 13 13 13 14 14 13 12 12 12 12 12 12 12 12 12 12
16 16 16 16 16 16 15 15 15 15 15 15 15 14 14 14 14 14 14 14 14 13 13 13 13 13 13 13 13 13 13 13 13 13 12 12 12 12 12 12 11 11 12
16 16 16 16 16 15 15 15 15 15 15 14 14 14 14 14 14 14 14 14 13 13 13 13 13 13 13 13 12 12 12 12 12 13 12 12 12 11 11 11 11 11 11
16 16 16 15 15 15 15 15 15 15 14 14 14 14 14 14 14 14 13 13 13 13 13 13 13 13 13 12 12 12 12 12 12 12 12 12 12 11 11 11 11 11 11
Wind_Speed
2 4 6 5 6 6 7 8 9 9 9 10 10 10 10 10 10 9 9 9 10 10 11 11 10 11 11 11 11 10 11 11 10 9 9 9 9 8 7 6 5 6 7
3 5 6 5 6 7 8 8 9 9 10 11 11 11 11 10 10 9 9 9 10 10 11 11 10 11 11 11 11 11 11 10 10 9 9 9 8 7 6 5 4 6 7
5 5 6 6 7 8 9 9 9 10 10 11 11 11 11 10 10 9 9 10 10 10 10 10 10 10 10 10 10 10 10 10 9 7 5 7 8 8 6 6 6 7 7
5 6 7 8 8 8 9 10 10 10 10 10 10 11 10 10 10 10 9 10 10 10 10 10 10 10 10 10 10 10 10 9 7 3 5 7 7 9 7 6 6 7 7
6 6 9 8 9 9 10 10 11 11 11 11 11 11 10 10 10 10 10 10 10 10 10 10 10 10 10 10 10 10 9 8 5 4 6 7 7 9 8 7 6 7 7
6 7 9 9 9 10 10 11 11 11 11 11 11 11 11 11 11 10 10 9 9 9 9 10 10 10 10 10 10 9 8 5 4 6 6 6 7 9 8 7 7 7 7
7 7 9 9 9 10 10 11 11 11 11 11 11 11 11 11 11 11 10 10 9 9 9 9 9 9 9 10 10 9 7 4 5 6 6 7 9 9 8 8 7 7 7
7 7 9 9 9 9 10 10 11 11 11 11 11 11 11 11 11 11 11 11 10 9 9 9 9 9 10 10 10 9 7 4 6 6 7 7 9 8 8 8 7 6 7
7 6 7 8 9 9 10 10 10 10 10 10 10 10 11 11 11 11 11 11 11 10 10 9 9 9 9 10 9 9 7 5 5 5 6 7 9 8 8 7 7 6 6
6 6 6 6 6 7 9 10 10 10 10 9 9 9 9 9 10 10 10 11 11 11 11 10 10 9 9 9 9 8 5 3 6 6 5 8 9 7 7 7 7 6 7
5 5 5 5 5 6 7 8 8 8 8 7 8 7 4 6 8 9 12 11 11 11 11 10 10 9 8 9 9 6 3 5 6 6 7 10 8 7 7 7 7 7 7
5 5 4 4 4 5 5 5 5 5 5 5 6 5 5 6 7 8 11 10 10 9 10 9 8 6 4 6 7 3 4 5 5 5 7 9 8 7 7 7 7 7 7
5 5 4 4 4 4 4 4 4 4 4 5 5 6 5 5 5 5 5 6 6 6 6 6 4 5 5 5 4 4 5 5 4 6 8 10 8 7 8 7 7 7 7
5 5 4 3 3 3 4 4 3 3 3 3 4 5 4 3 4 4 4 4 4 4 4 4 4 5 5 5 5 5 5 4 4 6 9 11 9 9 8 7 7 7 7
6 5 5 4 3 3 3 3 3 3 3 3 3 3 4 3 3 3 3 4 4 4 4 4 4 5 5 6 5 5 5 5 5 6 7 11 10 10 9 8 7 7 7
6 6 5 4 4 3 3 3 3 3 2 2 2 3 3 3 3 3 3 3 4 4 4 4 4 4 4 4 5 5 5 5 5 5 5 8 10 10 10 9 7 6 6
6 6 5 5 4 4 3 3 3 3 3 2 2 2 3 3 3 3 2 3 3 3 3 3 4 4 4 4 4 5 5 5 4 4 5 4 5 8 9 9 8 7 6
6 6 6 4 4 4 3 4 3 2 2 2 2 2 2 3 3 3 2 2 3 3 3 3 3 3 3 3 3 3 3 3 3 4 4 4 3 4 7 9 9 8 7
6 6 6 5 4 4 4 3 3 3 2 2 2 2 2 2 2 2 2 2 3 3 2 2 2 2 3 3 3 3 3 3 3 3 4 4 4 3 3 6 8 8 7
6 6 6 5 5 5 4 3 3 2 2 2 2 2 2 1 2 2 2 2 2 2 2 2 3 2 2 2 2 3 3 3 3 3 3 4 4 4 4 3 3 6 8
6 6 6 6 6 5 4 4 3 3 3 2 2 2 2 1 1 2 1 2 2 2 2 2 2 3 2 1 1 1 2 2 3 2 2 3 3 4 4 3 3 3 4
7 6 6 6 6 6 4 4 3 3 3 2 2 2 2 2 2 1 2 2 2 2 2 2 2 1 1 0 1 1 1 2 1 2 2 2 2 2 3 3 3 3 3
7 6 6 6 6 6 6 4 4 3 3 3 3 2 2 2 2 2 2 2 2 2 2 2 2 2 1 1 1 1 2 1 0 1 1 1 1 1 1 2 2 3 3
7 6 6 6 5 6 6 6 6 4 4 3 3 3 3 2 2 2 2 2 2 1 2 2 2 2 2 1 0 1 2 2 2 1 1 0 0 1 1 1 1 2 2
7 6 6 5 5 5 6 6 6 5 4 3 3 3 3 2 2 2 2 2 2 2 2 2 2 2 2 1 1 1 1 1 3 2 2 1 1 1 1 1 1 1 2
6 6 5 6 5 4 5 6 7 6 5 5 4 4 3 3 3 3 2 2 2 2 2 2 2 3 2 2 2 2 2 2 2 2 2 2 1 1 0 1 1 0 0
Wind_Direction
67 61 56 51 62 69 72 74 81 81 82 90 91 92 95 95 93 91 89 85 87 91 89 88 87 86 87 87 88 89 90 94 96 100 110 115 115 119 127 136 149 132 120
88 77 73 65 71 75 77 76 80 82 82 85 88 89 90 91 90 88 88 87 87 91 90 88 87 85 84 85 87 87 87 87 89 91 104 114 112 111 118 126 122 117 126
92 84 93 80 76 75 76 78 81 83 83 85 86 87 88 88 90 91 90 89 88 87 87 87 85 84 84 84 87 87 85 85 87 97 118 111 108 104 107 107 105 121 125
91 80 78 84 82 79 77 76 78 79 82 85 87 87 88 88 89 91 90 89 88 86 86 84 83 84 85 85 87 87 85 83 85 104 105 99 105 102 102 97 101 107 113
94 83 82 82 84 82 80 76 76 76 79 83 85 85 86 87 89 90 90 90 88 87 87 86 83 82 83 84 85 87 85 85 90 88 81 86 91 95 94 94 98 103 106
99 88 85 80 83 83 82 80 79 77 79 80 82 84 83 82 82 84 87 90 90 88 87 87 86 82 82 83 82 81 81 79 101 83 81 83 88 91 90 94 94 97 102
102 92 92 86 84 84 84 83 80 79 79 79 79 80 80 81 82 82 84 84 87 88 87 85 85 83 82 83 82 78 74 60 77 82 81 79 81 87 89 89 91 94 95
104 98 99 94 86 83 83 81 81 82 81 80 79 77 76 77 80 81 81 81 82 87 89 88 86 87 87 86 84 79 67 37 84 80 80 78 75 79 81 82 84 88 93
104 100 98 102 100 93 85 80 80 79 79 79 79 77 76 78 78 78 79 79 79 82 86 87 86 88 89 87 85 81 73 43 67 74 78 76 77 75 77 80 81 81 89
110 105 100 99 95 96 95 84 80 77 76 77 77 79 85 92 87 83 86 80 79 80 81 80 82 87 89 87 84 82 81 78 66 70 70 77 77 75 78 81 81 81 83
114 109 105 101 95 90 88 92 92 85 79 87 86 86 95 89 88 88 74 77 79 80 80 78 78 80 95 96 87 85 91 71 69 61 62 70 74 75 78 80 80 80 83
132 122 113 106 105 100 93 96 88 86 82 76 77 79 78 79 77 80 87 82 84 88 91 83 84 99 97 91 97 105 78 75 70 68 67 64 66 74 77 80 78 78 83
143 137 127 119 110 106 102 95 90 85 78 74 74 74 75 82 88 86 93 102 99 104 92 99 104 77 72 70 67 72 62 59 63 67 65 61 61 71 76 77 76 76 79
147 144 143 138 123 116 111 102 102 98 89 79 75 73 75 78 78 80 82 78 81 82 80 80 75 76 73 71 68 66 71 67 65 68 64 61 58 64 73 78 79 77 73
156 155 153 153 143 132 116 113 114 103 97 90 79 76 76 81 84 82 78 74 75 78 85 82 79 75 70 65 62 61 64 67 68 70 72 66 56 55 61 68 72 76 74
164 160 156 158 151 148 142 139 121 113 109 89 84 78 77 81 80 77 76 71 70 76 78 86 88 79 72 69 65 63 60 65 67 72 70 73 66 57 55 60 63 66 70
171 166 161 161 158 158 148 135 125 125 124 111 100 84 83 85 89 82 73 72 71 82 89 86 87 81 79 77 72 63 59 55 61 67 66 61 69 70 59 54 54 55 60
177 173 166 171 171 158 149 149 141 137 131 122 113 94 94 96 90 82 82 79 79 84 84 92 89 89 85 73 68 65 69 68 64 63 68 71 61 62 71 61 53 51 53
185 180 176 178 175 164 157 154 153 148 143 134 120 108 102 92 94 99 90 93 94 89 83 89 94 93 89 78 68 61 57 61 60 60 62 57 58 57 66 80 68 57 54
189 187 182 176 179 168 168 171 161 158 152 141 128 122 108 103 98 100 111 108 101 97 94 100 105 98 88 88 78 66 60 65 66 54 52 52 44 42 40 51 70 77 70
189 193 187 184 181 175 174 182 182 178 174 164 158 150 142 131 113 110 129 113 105 99 100 111 115 116 108 101 99 95 93 71 63 68 52 39 47 42 33 41 45 52 83
193 193 194 194 187 185 186 186 187 185 180 158 152 160 164 156 143 136 143 137 130 123 131 126 135 145 129 222 294 279 215 168 97 64 64 42 37 47 28 30 46 51 37
195 193 194 197 193 190 186 183 173 168 173 167 171 170 170 160 157 160 157 149 157 165 156 170 175 181 203 221 295 301 294 316 31 135 46 39 30 14 7 19 27 45 48
199 195 194 190 193 189 185 189 188 192 193 194 185 172 170 164 158 166 171 172 166 168 180 194 193 208 215 220 207 314 319 331 292 250 188 72 2 336 347 5 2 32 52
196 193 195 189 191 193 191 192 202 204 204 191 179 169 176 167 167 166 177 187 185 186 199 204 206 217 215 239 240 237 274 279 275 286 276 263 238 283 335 328 316 358 43
192 188 188 189 187 191 197 197 206 204 201 192 190 186 192 183 183 178 181 187 198 200 202 207 213 216 232 236 241 235 240 254 270 268 267 258 260 252 266 283 271 287 353
Height
1518 1517 1515 1515 1514 1513 1513 1512 1511 1511 1511 1511 1512 1512 1512 1513 1513 1514 1514 1515 1515 1515 1515 1516 1516 1516 1517 1517 1517 1517 1517 1517 1518 1518 1519 1519 1520 1521 1521 1522 1523 1523 1524
1519 1518 1517 1516 1515 1515 1515 1514 1513 1513 1513 1513 1513 1514 1514 1515 1515 1515 1516 1516 1516 1517 1516 1517 1518 1518 1518 1519 1519 1519 1519 1519 1519 1520 1520 1520 1521 1521 1522 1523 1523 1524 1525
1520 1519 1518 1517 1517 1517 1516 1516 1515 1515 1515 1515 1515 1515 1516 1516 1517 1517 1517 1518 1518 1518 1518 1519 1519 1520 1520 1520 1520 1520 1520 1521 1521 1521 1522 1523 1522 1522 1523 1524 1524 1525 1525
1521 1521 1520 1519 1519 1519 1518 1518 1517 1517 1517 1517 1517 1517 1517 1518 1518 1518 1519 1519 1519 1519 1520 1520 1521 1521 1521 1521 1521 1522 1522 1522 1522 1523 1524 1525 1524 1524 1524 1525 1525 1526 1526
1523 1522 1521 1520 1520 1520 1520 1520 1519 1519 1518 1519 1519 1519 1519 1519 1519 1520 1520 1520 1521 1521 1521 1522 1522 1522 1523 1523 1523 1523 1523 1524 1524 1525 1525 1525 1525 1525 1526 1526 1526 1527 1527
1524 1523 1522 1522 1522 1522 1522 1521 1521 1521 1521 1521 1521 1521 1521 1521 1521 1521 1522 1522 1522 1522 1523 1523 1523 1524 1524 1524 1524 1525 1525 1525 1526 1526 1526 1526 1527 1526 1527 1527 1527 1528 1528
1525 1525 1524 1524 1524 1523 1523 1523 1523 1523 1523 1523 1523 1523 1523 1523 1523 1523 1523 1523 1523 1524 1524 1524 1524 1525 1525 1525 1526 1526 1526 1526 1528 1527 1527 1527 1527 1527 1528 1528 1528 1529 1529
1527 1527 1526 1525 1525 1525 1525 1525 1525 1525 1524 1524 1524 1524 1524 1525 1525 1525 1525 1525 1525 1525 1525 1525 1526 1526 1526 1526 1527 1527 1527 1528 1529 1529 1529 1529 1528 1528 1529 1529 1529 1530 1530
1528 1528 1528 1528 1527 1527 1527 1527 1526 1526 1526 1526 1526 1526 1526 1526 1526 1526 1526 1526 1526 1526 1526 1527 1527 1527 1527 1527 1528 1528 1528 1529 1530 1531 1531 1530 1529 1529 1529 1529 1530 1530 1530
1529 1529 1529 1529 1529 1529 1529 1528 1528 1528 1528 1528 1528 1528 1528 1528 1528 1528 1528 1527 1528 1527 1528 1528 1528 1528 1528 1528 1529 1529 1530 1530 1531 1532 1532 1531 1530 1530 1530 1530 1530 1531 1531
1530 1530 1530 1531 1531 1531 1531 1530 1530 1530 1530 1530 1530 1529 1530 1530 1530 1530 1529 1529 1529 1529 1529 1529 1529 1529 1529 1529 1530 1530 1531 1532 1532 1532 1532 1531 1531 1531 1531 1531 1531 1531 1531
1530 1531 1531 1532 1532 1532 1532 1532 1532 1532 1532 1532 1532 1531 1532 1531 1531 1531 1530 1530 1530 1530 1530 1530 1530 1531 1531 1532 1532 1532 1533 1533 1533 1533 1533 1532 1532 1531 1531 1531 1531 1531 1532
1531 1531 1532 1532 1533 1533 1533 1533 1533 1533 1533 1533 1533 1533 1532 1532 1532 1532 1532 1532 1532 1532 1532 1532 1533 1533 1533 1533 1533 1534 1534 1534 1534 1534 1533 1533 1532 1532 1532 1532 1532 1532 1532
1532 1532 1532 1533 1533 1534 1534 1534 1534 1534 1534 1534 1534 1534 1534 1534 1534 1534 1534 1533 1533 1533 1533 1534 1534 1534 1534 1534 1534 1534 1534 1534 1535 1535 1534 1533 1533 1532 1532 1532 1532 1532 1533
1531 1532 1533 1533 1534 1534 1534 1534 1535 1535 1535 1535 1535 1535 1535 1535 1535 1535 1535 1534 1534 1534 1534 1534 1535 1535 1535 1535 1535 1535 1535 1535 1535 1535 1535 1534 1534 1533 1533 1533 1533 1533 1533
1531 1532 1533 1534 1534 1534 1535 1535 1535 1535 1535 1536 1536 1536 1536 1536 1535 1535 1536 1535 1535 1535 1535 1536 1536 1535 1535 1535 1535 1535 1536 1536 1536 1536 1536 1535 1534 1534 1534 1534 1533 1533 1533
1531 1532 1533 1534 1534 1535 1535 1535 1536 1536 1536 1537 1537 1537 1537 1536 1536 1536 1536 1536 1536 1536 1536 1536 1536 1536 1536 1536 1536 1536 1536 1535 1536 1536 1536 1535 1535 1535 1534 1534 1534 1533 1533
1531 1532 1533 1533 1534 1535 1535 1536 1536 1537 1537 1537 1537 1537 1537 1537 1537 1537 1536 1536 1536 1536 1536 1536 1537 1537 1536 1537 1536 1536 1536 1535 1536 1536 1536 1536 1535 1535 1534 1534 1533 1533 1533
1530 1531 1532 1533 1534 1534 1535 1535 1536 1537 1537 1537 1538 1538 1538 1538 1538 1537 1537 1537 1537 1536 1536 1536 1537 1537 1537 1537 1537 1536 1536 1536 1536 1535 1535 1536 1536 1535 1535 1534 1533 1533 1532
1529 1530 1531 1532 1533 1534 1534 1535 1536 1536 1537 1537 1537 1537 1537 1538 1538 1537 1537 1537 1537 1536 1536 1536 1537 1537 1537 1537 1537 1536 1536 1536 1536 1535 1535 1535 1535 1535 1534 1534 1533 1533 1532
1527 1528 1529 1530 1531 1532 1533 1534 1535 1536 1536 1536 1537 1537 1537 1537 1537 1537 1537 1537 1536 1536 1536 1537 1537 1537 1537 1537 1537 1537 1537 1536 1536 1535 1535 1535 1535 1534 1534 1534 1533 1533 1532
1525 1526 1528 1529 1530 1531 1532 1533 1534 1535 1535 1536 1536 1536 1537 1537 1537 1537 1537 1536 1536 1536 1536 1536 1536 1536 1536 1536 1537 1537 1537 1538 1536 1536 1535 1534 1534 1533 1533 1533 1533 1532 1532
1522 1524 1525 1526 1528 1529 1530 1532 1532 1533 1534 1535 1535 1535 1536 1536 1536 1536 1536 1536 1536 1536 1536 1536 1536 1536 1536 1536 1536 1537 1537 1536 1536 1536 1535 1534 1533 1533 1533 1533 1533 1532 1532
1520 1522 1523 1525 1526 1527 1528 1530 1531 1532 1533 1534 1534 1534 1535 1535 1535 1535 1535 1535 1535 1535 1535 1535 1536 1535 1535 1536 1535 1535 1536 1535 1536 1535 1535 1534 1533 1532 1532 1532 1532 1531 1531
1518 1519 1521 1522 1524 1525 1526 1527 1529 1530 1531 1532 1533 1533 1534 1534 1534 1534 1534 1534 1534 1534 1535 1535 1535 1535 1535 1535 1534 1534 1534 1534 1534 1534 1534 1534 1533 1532 1531 1531 1531 1530 1530
1515 1517 1518 1520 1522 1523 1524 1525 1527 1528 1529 1530 1531 1532 1532 1533 1533 1533 1533 1533 1533 1533 1534 1533 1533 1533 1533 1533 1533 1533 1533 1533 1533 1533 1533 1532 1532 1532 1530 1530 1529 1529 1528